Change the Weather History Date:

Sunday, April 6, 2014

  Actual Average Record
Temperature  
Mean Temperature 47 °F 40 °F  
Max Temperature 61 °F 51 °F 85 °F (1991)
Min Temperature 32 °F 29 °F 5 °F (1979)
Degree Days  
Heating Degree Days 18 25  
Month to date heating degree days 205 159  
Since 1 July heating degree days 8221 7501  
Cooling Degree Days 0 0  
Month to date cooling degree days 0 0  
Year to date cooling degree days 0 0  
Moisture  
Dew Point 36 °F    
Average Humidity 70    
Maximum Humidity 100    
Minimum Humidity 39    
Precipitation  
Precipitation 0.00 in 0.06 in 0.94 in (2006)
Month to date precipitation 0.42 0.24  
Year to date precipitation 1.88 2.22  
Snow  
Snow 0.00 in - - ()
Month to date snowfall 4.7  
Since 1 July snowfall 36.1  
Snow Depth T in    
Sea Level Pressure  
Sea Level Pressure 29.83 in    
Wind  
Wind Speed 7 mph (NNW)    
Max Wind Speed 18 mph    
Max Gust Speed 24 mph    
T = Trace of Precipitation, MM = Missing Value Source: NWS Daily Summary

Daily Weather History Graph

Daily Weather History Graph

Search for Another Location

Airport or City:

Trip Planner

Search our weather history database for the weather conditions in past years. The results will help you decide how hot, cold, wet, or windy it might be!

Date:

Astronomy

Apr. 06, 2014 Rise Set
Actual Time 6:58 AM CDT 8:02 PM CDT
Civil Twilight 6:28 AM CDT 8:33 PM CDT
Nautical Twilight 5:51 AM CDT 9:09 PM CDT
Astronomical Twilight 5:13 AM CDT 9:48 PM CDT
Moon 11:51 AM CDT (4/6) 2:09 AM CDT (4/6)
Length of Visible Light 14h 04m
Length of Day
13h 04m
Waxing Crescent, 44% of the Moon is Illuminated
Apr 6
Waxing Crescent
Apr 7
First Quarter
Apr 15
Full
Apr 22
Last Quarter
Apr 29
New

Hourly Weather History & Observations

Time (CDT) Temp. Windchill Dew Point Humidity Pressure Visibility Wind Dir Wind Speed Gust Speed Precip Events Conditions
12:56 AM 32.0 °F 24.8 °F 30.9 °F 96% 29.84 in - North 8.1 mph - N/A   Unknown
1:56 AM 33.1 °F 26.1 °F 30.9 °F 92% 29.83 in - North 8.1 mph - N/A   Unknown
2:56 AM 35.1 °F 26.4 °F 33.1 °F 92% 29.82 in - NNW 12.7 mph - N/A   Unknown
3:56 AM 34.0 °F 26.6 °F 30.9 °F 89% 29.84 in - NNW 9.2 mph - N/A   Unknown
4:56 AM 33.1 °F 26.1 °F 30.9 °F 92% 29.85 in - NW 8.1 mph - N/A   Unknown
5:56 AM 33.1 °F 24.9 °F 30.9 °F 92% 29.85 in - NNW 10.4 mph - N/A   Unknown
6:56 AM 32.0 °F 24.2 °F 30.0 °F 92% 29.86 in - NNW 9.2 mph - N/A   Unknown
7:56 AM 34.0 °F 25.5 °F 30.9 °F 89% 29.87 in - NNW 11.5 mph - N/A   Unknown
8:56 AM 37.9 °F 32.1 °F 33.1 °F 83% 29.88 in - NNW 8.1 mph - N/A   Unknown
9:56 AM 41.0 °F 35.8 °F 34.0 °F 76% 29.88 in - North 8.1 mph - N/A   Unknown
10:56 AM 44.1 °F 41.5 °F 37.0 °F 76% 29.88 in - North 4.6 mph - N/A   Unknown
11:56 AM 48.0 °F - 39.9 °F 74% 29.86 in - North 3.5 mph - N/A   Unknown
12:56 PM 52.0 °F - 42.1 °F 69% 29.85 in - Calm Calm - N/A   Unknown
1:56 PM 55.9 °F - 39.9 °F 55% 29.83 in - Calm Calm - N/A   Unknown
2:56 PM 57.9 °F - 37.9 °F 47% 29.81 in - Calm Calm - N/A   Unknown
3:56 PM 59.0 °F - 35.1 °F 41% 29.79 in - West 5.8 mph - N/A   Unknown
4:56 PM 61.0 °F - 36.0 °F 39% 29.77 in - West 9.2 mph - N/A   Unknown
5:56 PM 59.0 °F - 36.0 °F 42% 29.78 in - SW 10.4 mph - N/A   Unknown
6:56 PM 51.1 °F - 39.9 °F 66% 29.81 in - NNW 13.8 mph - N/A   Unknown
7:03 PM 50.0 °F - 39.9 °F 68% 29.78 in - NNW 10.4 mph - N/A   Unknown
7:56 PM 48.0 °F - 39.9 °F 74% 29.81 in - Calm Calm - N/A   Unknown
8:56 PM 43.0 °F - 39.0 °F 86% 29.82 in - Calm Calm - N/A   Unknown
9:56 PM 44.1 °F 39.5 °F 41.0 °F 89% 29.85 in - North 8.1 mph - N/A   Unknown
10:56 PM 41.0 °F 35.8 °F 39.0 °F 93% 29.83 in - SE 8.1 mph - N/A   Unknown
11:56 PM 37.9 °F 32.7 °F 37.0 °F 97% 29.84 in - SW 6.9 mph - N/A   Unknown